Location: Piotrkow Trybunalski
(51.4000°N, 19.6830°E)
Time: 04:58:15
(UTC+02:00)

A-11 Canister half - Pass Details

Date: 05 February 2023
Orbit: 1526 x 1682 km, 47.3° (Epoch: 25 March)

Event Time Altitude Azimuth Distance (km) Brightness Sun altitude
Rises 09:17:33 0° 277° (W) 4,686 11.1 14.4°
Reaches altitude 10° 09:20:36 10° 274° (W) 3,711 10.7 14.7°
Maximum altitude 09:29:45 61° 197° (SSW) 1,736 9.9 15.6°
Drops below altitude 10° 09:39:10 10° 121° (ESE) 3,806 12.5 16.4°
Sets 09:42:20 0° 118° (ESE) 4,812 12.7 16.7°
